Location: Unspecified
(42.2460°N, 0.0000°E)
Time: 02:19:08
(UTC+00:00)

Delta 1 Deb - Visible Passes

Search period start: 04 April 2026 00:00
Search period end: 14 April 2026 00:00
Orbit: 580 x 658 km, 99.9° (Epoch: 29 March)

Date Brightness Start Highest point End Pass type
(mag) Time Alt. Az. Time Alt. Az. Time Alt. Az.
4 Apr ? 20:10:37 10° NNE 20:15:08 83° WNW 20:19:35 10° SSW visible
5 Apr ? 18:52:59 10° ENE 18:55:27 14° E 18:57:51 10° SE visible
5 Apr ? 20:27:11 10° N 20:31:37 57° WNW 20:35:57 10° SSW visible
6 Apr ? 19:08:41 10° NE 19:12:04 21° E 19:15:23 10° SE visible
6 Apr ? 20:43:49 10° N 20:48:01 39° WNW 20:52:07 10° SW visible
7 Apr ? 19:24:40 10° NE 19:28:37 29° E 19:32:28 10° SSE visible
7 Apr ? 21:00:31 10° N 21:04:21 28° WNW 21:08:06 10° WSW visible
8 Apr ? 19:40:49 10° NNE 19:45:05 42° E 19:49:15 10° S visible
8 Apr ? 21:17:18 10° NNW 21:20:35 20° WNW 21:23:49 10° WSW visible
9 Apr ? 19:57:01 10° NNE 20:01:28 62° ESE 20:05:49 10° S visible
9 Apr ? 21:34:17 10° NNW 21:36:46 15° WNW 21:39:12 10° W visible
10 Apr ? 20:13:18 10° NNE 20:17:48 89° WNW 20:22:10 10° SSW visible
10 Apr ? 21:52:01 10° NW 21:52:51 10° NW 21:53:43 10° WNW visible
11 Apr ? 20:29:37 10° N 20:34:02 62° WNW 20:38:20 10° SSW visible
12 Apr ? 19:11:05 10° NE 19:14:12 18° E 19:17:15 10° SE visible
12 Apr ? 20:45:59 10° N 20:50:12 42° WNW 20:54:19 10° SW visible
13 Apr ? 19:26:47 10° NE 19:30:31 26° E 19:34:10 10° SSE visible
13 Apr ? 21:02:25 10° N 21:06:18 30° WNW 21:10:05 10° SW visible
